This is the latest recevied weather packets stored in our database for station/object N0HEQ. If no packets are shown the sender has not sent any weather packets the latest 10 day(s).
| Time | Temp. | Humidity | Pressure | Rain* | Wind** | Luminosity | Snow |
|---|---|---|---|---|---|---|---|
| 1777902274 | 12.78° C | 32% | 1013.2 hPa | 0 mm | - | 64 W/m² | - |
| 1777901972 | 12.78° C | 33% | 1013.2 hPa | 0 mm | - | 66 W/m² | - |
| 1777901669 | 12.78° C | 34% | 1013 hPa | 0 mm | - | 61 W/m² | - |
| 1777901366 | 12.22° C | 34% | 1013 hPa | 0 mm | - | 62 W/m² | - |
| 1777901064 | 12.22° C | 34% | 1012.9 hPa | 0 mm | - | 55 W/m² | - |
| 1777900761 | 12.22° C | 34% | 1012.8 hPa | 0 mm | - | 50 W/m² | - |
| 1777900458 | 11.67° C | 35% | 1012.8 hPa | 0 mm | - | 44 W/m² | - |
| 1777900156 | 11.67° C | 34% | 1012.9 hPa | 0 mm | - | 37 W/m² | - |
| 1777899852 | 11.67° C | 35% | 1012.8 hPa | 0 mm | - | 32 W/m² | - |
| 1777899549 | 11.67° C | 35% | 1012.7 hPa | 0 mm | - | 26 W/m² | - |
| 1777899247 | 11.67° C | 35% | 1012.9 hPa | 0 mm | - | 23 W/m² | - |
| 1777898944 | 11.67° C | 34% | 1012.8 hPa | 0 mm | - | 21 W/m² | - |
| 1777898641 | 11.67° C | 34% | 1012.7 hPa | 0 mm | - | 19 W/m² | - |
| 1777898338 | 11.67° C | 35% | 1012.6 hPa | 0 mm | - | 14 W/m² | - |
| 1777898035 | 11.67° C | 35% | 1012.7 hPa | 0 mm | - | 10 W/m² | - |
| 1777897731 | 11.11° C | 35% | 1012.6 hPa | 0 mm | - | 8 W/m² | - |
| 1777897428 | 11.11° C | 36% | 1012.6 hPa | 0 mm | - | 7 W/m² | - |
| 1777897124 | 11.11° C | 36% | 1012.3 hPa | 0 mm | - | 6 W/m² | - |
| 1777896820 | 11.11° C | 36% | 1012.4 hPa | 0 mm | - | 4 W/m² | - |
| 1777896518 | 10.56° C | 37% | 1012.4 hPa | 0 mm | - | 3 W/m² | - |
| 1777896215 | 10.56° C | 37% | 1012.3 hPa | 0 mm | - | 2 W/m² | - |
| 1777895912 | 10° C | 39% | 1012.4 hPa | 0 mm | - | 1 W/m² | - |
| 1777895610 | 10° C | 39% | 1012.6 hPa | 0 mm | - | 1 W/m² | - |
| 1777895307 | 10° C | 39% | 1012.4 hPa | 0 mm | - | 0 W/m² | - |
| 1777895005 | 10° C | 39% | 1012.6 hPa | 0 mm | - | 0 W/m² | - |
* Rain latest hour (hover to see other rain measurements)
** Current wind speed in m/s (hover to see current wind gust speed)